| time (UTC) | temp F | wind direction | speed MPH | gust MPH | rain 1hr in | rain 24hr in | rain mn in | humidity % | barometer mb |
| 20260507183047 | 59 | 83 | 5.0 | 10.0 | 0.00 | 0.00 | 0.00 | 65 | 1020.9 |
| 20260507182527 | 60 | 190 | 3.0 | 10.0 | 0.00 | 0.00 | 0.00 | 67 | 1020.9 |
| 20260507182027 | 60 | 72 | 3.0 | 10.0 | 0.00 | 0.00 | 0.00 | 66 | 1020.9 |
| 20260507181551 | 59 | 237 | 3.0 | 7.0 | 0.00 | 0.00 | 0.00 | 70 | 1021.0 |
| 20260507181030 | 59 | 259 | 3.0 | 7.0 | 0.00 | 0.00 | 0.00 | 70 | 1021.0 |
| 20260507180527 | 59 | 157 | 3.0 | 7.0 | 0.00 | 0.00 | 0.00 | 68 | 1021.1 |
| 20260507180042 | 59 | 184 | 1.0 | 9.0 | 0.00 | 0.00 | 0.00 | 70 | 1021.0 |
| 20260507175530 | 58 | 157 | 4.0 | 11.0 | 0.00 | 0.00 | 0.00 | 70 | 1021.1 |
| 20260507175029 | 58 | 229 | 6.0 | 11.0 | 0.00 | 0.00 | 0.00 | 73 | 1021.1 |
| 20260507174552 | 57 | 180 | 4.0 | 8.0 | 0.00 | 0.00 | 0.00 | 71 | 1021.1 |
| 20260507174029 | 57 | 131 | 3.0 | 10.0 | 0.00 | 0.00 | 0.00 | 73 | 1021.1 |
| 20260507173526 | 57 | 227 | 4.0 | 10.0 | 0.00 | 0.00 | 0.00 | 73 | 1021.1 |
| 20260507173103 | 57 | 113 | 4.0 | 10.0 | 0.00 | 0.00 | 0.00 | 72 | 1021.3 |
| 20260507172528 | 56 | 120 | 3.0 | 9.0 | 0.00 | 0.00 | 0.00 | 72 | 1021.1 |
| 20260507172028 | 56 | 121 | 3.0 | 9.0 | 0.00 | 0.00 | 0.00 | 75 | 1021.2 |
| 20260507171546 | 55 | 138 | 4.0 | 9.0 | 0.00 | 0.00 | 0.00 | 73 | 1021.1 |
| 20260507171028 | 55 | 148 | 5.0 | 9.0 | 0.00 | 0.00 | 0.00 | 73 | 1021.2 |
| 20260507170528 | 55 | 119 | 2.0 | 6.0 | 0.00 | 0.00 | 0.00 | 75 | 1021.3 |
| 20260507170100 | 55 | 153 | 3.0 | 7.0 | 0.00 | 0.00 | 0.00 | 76 | 1021.4 |
| 20260507165527 | 54 | 113 | 4.0 | 7.0 | 0.00 | 0.00 | 0.00 | 75 | 1021.3 |
| 20260507165027 | 54 | 122 | 3.0 | 7.0 | 0.00 | 0.00 | 0.00 | 75 | 1021.4 |
| 20260507164549 | 54 | 134 | 4.0 | 7.0 | 0.00 | 0.00 | 0.00 | 76 | 1021.4 |
| 20260507164025 | 54 | 96 | 4.0 | 7.0 | 0.00 | 0.00 | 0.00 | 74 | 1021.4 |
| 20260507163524 | 54 | 163 | 2.0 | 8.0 | 0.00 | 0.00 | 0.00 | 77 | 1021.4 |
| 20260507163041 | 54 | 126 | 2.0 | 8.0 | 0.00 | 0.00 | 0.00 | 75 | 1021.4 |
| 20260507162525 | 55 | 117 | 3.0 | 7.0 | 0.00 | 0.00 | 0.00 | 75 | 1021.3 |
| 20260507162025 | 55 | 158 | 3.0 | 5.0 | 0.00 | 0.00 | 0.00 | 76 | 1021.4 |
| 20260507161556 | 54 | 176 | 1.0 | 5.0 | 0.00 | 0.00 | 0.00 | 78 | 1021.5 |
| 20260507161025 | 54 | 240 | 1.0 | 4.0 | 0.00 | 0.00 | 0.00 | 79 | 1021.5 |
| 20260507160525 | 53 | 234 | 2.0 | 4.0 | 0.00 | 0.00 | 0.00 | 77 | 1021.6 |
| 20260507160042 | 53 | 200 | 1.0 | 4.0 | 0.00 | 0.00 | 0.00 | 79 | 1021.6 |
| 20260507155525 | 53 | 139 | 2.0 | 4.0 | 0.00 | 0.00 | 0.00 | 79 | 1021.6 |
| 20260507155025 | 53 | 168 | 1.0 | 5.0 | 0.00 | 0.00 | 0.00 | 80 | 1021.7 |
| 20260507154542 | 52 | 277 | 2.0 | 5.0 | 0.00 | 0.00 | 0.00 | 79 | 1021.8 |
| 20260507154027 | 52 | 194 | 1.0 | 3.0 | 0.00 | 0.00 | 0.00 | 80 | 1021.7 |
| 20260507153525 | 51 | 248 | 2.0 | 4.0 | 0.00 | 0.00 | 0.00 | 79 | 1021.7 |
| 20260507153045 | 51 | 213 | 2.0 | 4.0 | 0.00 | 0.00 | 0.00 | 81 | 1021.7 |
| 20260507152528 | 51 | 244 | 1.0 | 4.0 | 0.00 | 0.00 | 0.00 | 81 | 1021.7 |
| 20260507152025 | 51 | 238 | 2.0 | 4.0 | 0.00 | 0.00 | 0.00 | 81 | 1021.7 |
| 20260507151541 | 51 | 167 | 1.0 | 3.0 | 0.00 | 0.00 | 0.00 | 82 | 1021.7 |
| 20260507151024 | 51 | 223 | 1.0 | 3.0 | 0.00 | 0.00 | 0.00 | 82 | 1021.6 |
| 20260507150528 | 50 | 208 | 1.0 | 4.0 | 0.00 | 0.00 | 0.00 | 82 | 1021.6 |
| 20260507150042 | 50 | 214 | 1.0 | 6.0 | 0.00 | 0.00 | 0.00 | 83 | 1021.7 |
| 20260507145524 | 50 | 201 | 3.0 | 6.0 | 0.00 | 0.00 | 0.00 | 83 | 1021.7 |
| 20260507145024 | 50 | 190 | 2.0 | 4.0 | 0.00 | 0.00 | 0.00 | 83 | 1021.7 |
| 20260507144542 | 50 | 161 | 2.0 | 4.0 | 0.00 | 0.00 | 0.00 | 84 | 1021.6 |
| 20260507144025 | 50 | 211 | 2.0 | 3.0 | 0.00 | 0.00 | 0.00 | 83 | 1021.6 |
| 20260507143525 | 50 | 223 | 1.0 | 3.0 | 0.00 | 0.00 | 0.00 | 84 | 1021.6 |
| 20260507143044 | 50 | 213 | 1.0 | 4.0 | 0.00 | 0.00 | 0.00 | 85 | 1021.6 |
| 20260507142524 | 49 | 191 | 1.0 | 5.0 | 0.00 | 0.00 | 0.00 | 85 | 1021.6 |
| 20260507142024 | 49 | 164 | 3.0 | 5.0 | 0.00 | 0.00 | 0.00 | 85 | 1021.6 |
| 20260507141604 | 49 | 202 | 3.0 | 6.0 | 0.00 | 0.00 | 0.00 | 85 | 1021.5 |
| 20260507141025 | 49 | 208 | 2.0 | 6.0 | 0.00 | 0.00 | 0.00 | 85 | 1021.5 |
| 20260507140525 | 49 | 162 | 2.0 | 5.0 | 0.00 | 0.00 | 0.00 | 85 | 1021.5 |
| 20260507140044 | 49 | 180 | 2.0 | 5.0 | 0.00 | 0.00 | 0.00 | 85 | 1021.4 |
| 20260507135525 | 49 | 189 | 1.0 | 4.0 | 0.00 | 0.00 | 0.00 | 85 | 1021.5 |
| 20260507135025 | 49 | 207 | 2.0 | 4.0 | 0.00 | 0.00 | 0.00 | 85 | 1021.4 |
| 20260507134544 | 49 | 188 | 1.0 | 5.0 | 0.00 | 0.00 | 0.00 | 85 | 1021.4 |
| 20260507134024 | 49 | 188 | 2.0 | 5.0 | 0.00 | 0.00 | 0.00 | 85 | 1021.3 |
| 20260507133527 | 49 | 149 | 1.0 | 3.0 | 0.00 | 0.00 | 0.00 | 85 | 1021.3 |
| 20260507133042 | 48 | 244 | 2.0 | 5.0 | 0.00 | 0.00 | 0.00 | 86 | 1021.3 |
| 20260507132529 | 48 | 193 | 1.0 | 5.0 | 0.00 | 0.00 | 0.00 | 86 | 1021.1 |
| 20260507132026 | 48 | 200 | 0.0 | 3.0 | 0.00 | 0.00 | 0.00 | 87 | 1021.2 |
| 20260507131539 | 48 | 228 | 0.0 | 3.0 | 0.00 | 0.00 | 0.00 | 86 | 1021.3 |
| 20260507131027 | 48 | 163 | 1.0 | 4.0 | 0.00 | 0.00 | 0.00 | 86 | 1021.2 |
| 20260507130526 | 48 | 177 | 2.0 | 4.0 | 0.00 | 0.00 | 0.00 | 86 | 1021.2 |
| 20260507130039 | 48 | 182 | 2.0 | 4.0 | 0.00 | 0.00 | 0.00 | 86 | 1021.2 |
| 20260507125529 | 48 | 186 | 2.0 | 4.0 | 0.00 | 0.00 | 0.00 | 86 | 1021.1 |
| 20260507125027 | 48 | 175 | 1.0 | 2.0 | 0.00 | 0.00 | 0.00 | 86 | 1021.1 |
| 20260507124547 | 48 | 184 | 0.0 | 2.0 | 0.00 | 0.00 | 0.00 | 86 | 1021.1 |
| 20260507124027 | 48 | 196 | 1.0 | 4.0 | 0.00 | 0.00 | 0.00 | 85 | 1021.1 |
| 20260507123527 | 49 | 205 | 1.0 | 4.0 | 0.00 | 0.00 | 0.00 | 85 | 1021.1 |
| 20260507123045 | 48 | 207 | 1.0 | 4.0 | 0.00 | 0.00 | 0.00 | 86 | 1021.1 |
| 20260507122527 | 48 | 197 | 1.0 | 4.0 | 0.00 | 0.00 | 0.00 | 87 | 1021.2 |
| 20260507122027 | 48 | 177 | 0.0 | 3.0 | 0.00 | 0.00 | 0.00 | 86 | 1021.3 |
| 20260507121544 | 48 | 177 | 1.0 | 3.0 | 0.00 | 0.00 | 0.00 | 86 | 1021.2 |
| 20260507121027 | 48 | 153 | 1.0 | 3.0 | 0.00 | 0.00 | 0.00 | 86 | 1021.3 |
| 20260507120526 | 48 | 164 | 1.0 | 4.0 | 0.00 | 0.00 | 0.00 | 85 | 1021.2 |
| 20260507120046 | 48 | 177 | 2.0 | 5.0 | 0.00 | 0.00 | 0.00 | 85 | 1021.3 |
| 20260507115527 | 49 | 188 | 3.0 | 5.0 | 0.00 | 0.00 | 0.00 | 85 | 1021.4 |
| 20260507115026 | 49 | 151 | 1.0 | 4.0 | 0.00 | 0.00 | 0.00 | 85 | 1021.4 |
| 20260507114542 | 49 | 168 | 2.0 | 4.0 | 0.00 | 0.00 | 0.00 | 85 | 1021.5 |
| 20260507114027 | 49 | 221 | 1.0 | 5.0 | 0.00 | 0.00 | 0.00 | 85 | 1021.5 |
| 20260507113527 | 49 | 201 | 2.0 | 5.0 | 0.00 | 0.00 | 0.00 | 85 | 1021.4 |
| 20260507113046 | 49 | 206 | 2.0 | 4.0 | 0.00 | 0.00 | 0.00 | 85 | 1021.3 |
| 20260507112526 | 49 | 196 | 2.0 | 5.0 | 0.00 | 0.00 | 0.00 | 85 | 1021.4 |
| 20260507112026 | 49 | 193 | 2.0 | 5.0 | 0.00 | 0.00 | 0.00 | 85 | 1021.4 |
| 20260507111539 | 50 | 185 | 2.0 | 4.0 | 0.00 | 0.00 | 0.00 | 85 | 1021.6 |
| 20260507111026 | 50 | 225 | 3.0 | 4.0 | 0.00 | 0.00 | 0.00 | 85 | 1021.6 |
| 20260507110528 | 50 | 180 | 2.0 | 4.0 | 0.00 | 0.00 | 0.00 | 85 | 1021.6 |
| 20260507110046 | 50 | 220 | 2.0 | 5.0 | 0.00 | 0.00 | 0.00 | 85 | 1021.6 |
| 20260507105527 | 50 | 208 | 2.0 | 5.0 | 0.00 | 0.00 | 0.00 | 84 | 1021.7 |
| 20260507105027 | 50 | 227 | 1.0 | 4.0 | 0.00 | 0.00 | 0.00 | 84 | 1021.5 |
| 20260507104542 | 50 | 237 | 2.0 | 4.0 | 0.00 | 0.00 | 0.00 | 85 | 1021.6 |
| 20260507104027 | 50 | 163 | 2.0 | 5.0 | 0.00 | 0.00 | 0.00 | 85 | 1021.6 |
| 20260507103527 | 50 | 215 | 3.0 | 7.0 | 0.00 | 0.00 | 0.00 | 85 | 1021.6 |
| 20260507103041 | 50 | 205 | 4.0 | 7.0 | 0.00 | 0.00 | 0.00 | 85 | 1021.7 |
| 20260507102528 | 50 | 210 | 3.0 | 6.0 | 0.00 | 0.00 | 0.00 | 84 | 1021.6 |
| 20260507102028 | 51 | 211 | 3.0 | 6.0 | 0.00 | 0.00 | 0.00 | 84 | 1021.7 |
| 20260507101541 | 51 | 195 | 2.0 | 6.0 | 0.00 | 0.00 | 0.00 | 84 | 1021.7 |
| 20260507101026 | 51 | 177 | 2.0 | 6.0 | 0.00 | 0.00 | 0.00 | 85 | 1021.7 |
| 20260507100526 | 51 | 209 | 4.0 | 6.0 | 0.00 | 0.00 | 0.00 | 85 | 1021.7 |
| 20260507100042 | 51 | 222 | 3.0 | 6.0 | 0.00 | 0.00 | 0.00 | 84 | 1021.7 |
| 20260507095526 | 51 | 201 | 2.0 | 5.0 | 0.00 | 0.00 | 0.00 | 84 | 1021.8 |
| 20260507095027 | 51 | 216 | 2.0 | 5.0 | 0.00 | 0.00 | 0.00 | 84 | 1021.7 |
| 20260507094544 | 51 | 219 | 3.0 | 5.0 | 0.00 | 0.00 | 0.00 | 84 | 1021.7 |
| 20260507094026 | 51 | 199 | 2.0 | 6.0 | 0.00 | 0.00 | 0.00 | 85 | 1021.8 |
| 20260507093529 | 51 | 196 | 2.0 | 6.0 | 0.00 | 0.00 | 0.00 | 85 | 1021.8 |
| 20260507093044 | 51 | 216 | 2.0 | 6.0 | 0.00 | 0.00 | 0.00 | 84 | 1021.9 |
| 20260507092526 | 51 | 220 | 3.0 | 6.0 | 0.00 | 0.00 | 0.00 | 85 | 1021.9 |
| 20260507092030 | 51 | 184 | 2.0 | 5.0 | 0.00 | 0.00 | 0.00 | 85 | 1021.9 |
| 20260507091545 | 51 | 227 | 3.0 | 5.0 | 0.00 | 0.00 | 0.00 | 85 | 1021.9 |
| 20260507091028 | 51 | 195 | 3.0 | 5.0 | 0.00 | 0.00 | 0.00 | 85 | 1021.8 |
| 20260507090527 | 51 | 196 | 3.0 | 5.0 | 0.00 | 0.00 | 0.00 | 85 | 1021.9 |
| 20260507090044 | 51 | 205 | 2.0 | 7.0 | 0.00 | 0.00 | 0.00 | 85 | 1022.0 |
| 20260507085526 | 51 | 214 | 2.0 | 7.0 | 0.00 | 0.00 | 0.00 | 85 | 1022.0 |
| 20260507085028 | 51 | 196 | 4.0 | 7.0 | 0.00 | 0.00 | 0.00 | 85 | 1022.1 |
| 20260507084540 | 51 | 165 | 4.0 | 7.0 | 0.00 | 0.00 | 0.00 | 85 | 1022.0 |
| 20260507084026 | 51 | 236 | 4.0 | 7.0 | 0.00 | 0.00 | 0.00 | 85 | 1022.0 |
| 20260507083527 | 51 | 199 | 4.0 | 7.0 | 0.00 | 0.00 | 0.00 | 85 | 1022.0 |
| 20260507083040 | 51 | 206 | 4.0 | 7.0 | 0.00 | 0.00 | 0.00 | 85 | 1022.1 |
| 20260507082528 | 51 | 224 | 3.0 | 7.0 | 0.00 | 0.00 | 0.00 | 86 | 1022.1 |
| 20260507082026 | 51 | 221 | 4.0 | 8.0 | 0.00 | 0.00 | 0.00 | 85 | 1022.0 |
| 20260507081544 | 51 | 213 | 4.0 | 8.0 | 0.00 | 0.00 | 0.00 | 85 | 1022.0 |
| 20260507081026 | 51 | 213 | 3.0 | 8.0 | 0.00 | 0.00 | 0.00 | 85 | 1022.0 |
| 20260507080526 | 51 | 216 | 4.0 | 8.0 | 0.00 | 0.00 | 0.00 | 85 | 1021.9 |
| 20260507080044 | 51 | 219 | 5.0 | 8.0 | 0.00 | 0.00 | 0.00 | 85 | 1021.9 |
| 20260507075526 | 51 | 202 | 5.0 | 9.0 | 0.00 | 0.00 | 0.00 | 85 | 1021.9 |
| 20260507075027 | 51 | 215 | 3.0 | 9.0 | 0.00 | 0.00 | 0.00 | 85 | 1022.0 |
| 20260507074543 | 51 | 168 | 3.0 | 8.0 | 0.00 | 0.00 | 0.00 | 85 | 1022.0 |
| 20260507074028 | 52 | 202 | 5.0 | 8.0 | 0.00 | 0.00 | 0.00 | 85 | 1021.9 |
| 20260507073526 | 52 | 216 | 4.0 | 8.0 | 0.00 | 0.00 | 0.00 | 85 | 1022.0 |
| 20260507073050 | 51 | 210 | 3.0 | 7.0 | 0.00 | 0.00 | 0.00 | 85 | 1021.9 |
| 20260507072527 | 52 | 202 | 3.0 | 7.0 | 0.00 | 0.00 | 0.00 | 85 | 1021.9 |
| 20260507072027 | 52 | 219 | 3.0 | 7.0 | 0.00 | 0.00 | 0.00 | 85 | 1021.9 |
| 20260507071540 | 52 | 189 | 4.0 | 7.0 | 0.00 | 0.00 | 0.00 | 84 | 1021.9 |
| 20260507071026 | 52 | 218 | 4.0 | 7.0 | 0.00 | 0.00 | 0.00 | 84 | 1021.9 |
| 20260507070527 | 52 | 202 | 3.0 | 7.0 | 0.00 | 0.00 | 0.00 | 84 | 1021.9 |
| 20260507070043 | 52 | 209 | 4.0 | 7.0 | 0.00 | 0.00 | 0.00 | 85 | 1021.8 |
| 20260507065526 | 52 | 190 | 4.0 | 6.0 | 0.00 | 0.00 | 0.00 | 84 | 1022.0 |
| 20260507065026 | 52 | 198 | 4.0 | 8.0 | 0.00 | 0.00 | 0.00 | 84 | 1022.0 |
| 20260507064546 | 52 | 195 | 4.0 | 8.0 | 0.00 | 0.00 | 0.00 | 84 | 1022.0 |
| 20260507064027 | 52 | 219 | 4.0 | 8.0 | 0.00 | 0.00 | 0.00 | 84 | 1022.0 |
| 20260507063526 | 52 | 197 | 4.0 | 7.0 | 0.00 | 0.00 | 0.00 | 84 | 1022.0 |
| 20260507063046 | 52 | 182 | 2.0 | 6.0 | 0.00 | 0.00 | 0.00 | 84 | 1022.0 |
| 20260507062531 | 52 | 205 | 3.0 | 6.0 | 0.00 | 0.00 | 0.00 | 84 | 1022.0 |
| 20260507062026 | 52 | 211 | 2.0 | 4.0 | 0.00 | 0.00 | 0.00 | 84 | 1022.1 |
| 20260507061542 | 52 | 200 | 2.0 | 5.0 | 0.00 | 0.00 | 0.00 | 84 | 1022.1 |
| 20260507061026 | 52 | 185 | 3.0 | 6.0 | 0.00 | 0.00 | 0.00 | 84 | 1022.2 |
| 20260507060526 | 52 | 189 | 2.0 | 6.0 | 0.00 | 0.00 | 0.00 | 83 | 1022.1 |
| 20260507060043 | 52 | 181 | 2.0 | 6.0 | 0.00 | 0.00 | 0.00 | 82 | 1022.1 |
| 20260507055528 | 52 | 204 | 3.0 | 6.0 | 0.00 | 0.00 | 0.00 | 82 | 1022.1 |
| 20260507055027 | 52 | 184 | 3.0 | 7.0 | 0.00 | 0.00 | 0.00 | 82 | 1022.1 |
| 20260507054540 | 52 | 188 | 4.0 | 7.0 | 0.00 | 0.00 | 0.00 | 82 | 1022.1 |
| 20260507054028 | 52 | 226 | 3.0 | 7.0 | 0.00 | 0.00 | 0.00 | 82 | 1022.2 |
| 20260507053526 | 52 | 217 | 3.0 | 7.0 | 0.00 | 0.00 | 0.00 | 82 | 1022.0 |
| 20260507053041 | 52 | 202 | 3.0 | 7.0 | 0.00 | 0.00 | 0.00 | 82 | 1022.1 |
| 20260507052526 | 52 | 200 | 2.0 | 7.0 | 0.00 | 0.00 | 0.00 | 82 | 1022.1 |
| 20260507052029 | 52 | 211 | 3.0 | 6.0 | 0.00 | 0.00 | 0.00 | 82 | 1022.1 |
| 20260507051540 | 52 | 207 | 3.0 | 5.0 | 0.00 | 0.00 | 0.00 | 82 | 1022.1 |
| 20260507051030 | 52 | 226 | 2.0 | 8.0 | 0.00 | 0.00 | 0.00 | 82 | 1022.2 |
| 20260507050526 | 52 | 194 | 4.0 | 8.0 | 0.00 | 0.00 | 0.00 | 82 | 1022.2 |
| 20260507050045 | 52 | 203 | 3.0 | 7.0 | 0.00 | 0.00 | 0.00 | 82 | 1022.1 |
| 20260507045526 | 52 | 193 | 4.0 | 7.0 | 0.00 | 0.00 | 0.00 | 83 | 1022.3 |
| 20260507045026 | 52 | 159 | 3.0 | 6.0 | 0.00 | 0.00 | 0.00 | 84 | 1022.2 |
| 20260507044542 | 53 | 234 | 3.0 | 6.0 | 0.00 | 0.00 | 0.00 | 84 | 1022.2 |
| 20260507044025 | 53 | 195 | 2.0 | 5.0 | 0.00 | 0.00 | 0.00 | 84 | 1022.3 |
| 20260507043526 | 53 | 203 | 2.0 | 7.0 | 0.00 | 0.00 | 0.00 | 84 | 1022.2 |
| 20260507043044 | 53 | 213 | 4.0 | 7.0 | 0.00 | 0.00 | 0.00 | 84 | 1022.2 |
| 20260507042526 | 53 | 196 | 3.0 | 6.0 | 0.00 | 0.00 | 0.00 | 84 | 1022.1 |
| 20260507042026 | 53 | 242 | 2.0 | 6.0 | 0.00 | 0.00 | 0.00 | 84 | 1022.1 |
| 20260507041545 | 53 | 227 | 3.0 | 6.0 | 0.00 | 0.00 | 0.00 | 83 | 1022.1 |
| 20260507041026 | 53 | 202 | 3.0 | 7.0 | 0.00 | 0.00 | 0.00 | 83 | 1022.1 |
| 20260507040527 | 54 | 148 | 3.0 | 7.0 | 0.00 | 0.00 | 0.00 | 82 | 1022.0 |
| 20260507040042 | 54 | 247 | 3.0 | 6.0 | 0.00 | 0.00 | 0.00 | 83 | 1021.9 |
| 20260507035526 | 54 | 216 | 1.0 | 3.0 | 0.00 | 0.00 | 0.00 | 83 | 1021.9 |
| 20260507035026 | 54 | 226 | 1.0 | 9.0 | 0.00 | 0.00 | 0.00 | 84 | 1021.9 |
| 20260507034603 | 54 | 240 | 2.0 | 9.0 | 0.00 | 0.00 | 0.00 | 83 | 1021.9 |
| 20260507034027 | 54 | 200 | 2.0 | 9.0 | 0.00 | 0.00 | 0.00 | 84 | 1021.9 |
| 20260507033526 | 54 | 271 | 3.0 | 9.0 | 0.00 | 0.00 | 0.00 | 84 | 1021.8 |
| 20260507033100 | 54 | 229 | 3.0 | 9.0 | 0.00 | 0.00 | 0.00 | 84 | 1021.8 |
| 20260507032526 | 54 | 236 | 3.0 | 6.0 | 0.00 | 0.00 | 0.00 | 85 | 1021.8 |
| 20260507032025 | 54 | 208 | 1.0 | 6.0 | 0.00 | 0.00 | 0.00 | 85 | 1021.6 |
| 20260507031542 | 54 | 209 | 3.0 | 6.0 | 0.00 | 0.00 | 0.00 | 85 | 1021.6 |
| 20260507031026 | 54 | 219 | 2.0 | 5.0 | 0.00 | 0.00 | 0.00 | 85 | 1021.6 |
| 20260507030526 | 54 | 198 | 2.0 | 9.0 | 0.00 | 0.00 | 0.00 | 85 | 1021.5 |
| 20260507030041 | 55 | 173 | 3.0 | 9.0 | 0.00 | 0.00 | 0.00 | 84 | 1021.5 |
| 20260507025525 | 55 | 252 | 5.0 | 9.0 | 0.00 | 0.00 | 0.00 | 84 | 1021.4 |
| 20260507025026 | 55 | 182 | 3.0 | 7.0 | 0.00 | 0.00 | 0.00 | 84 | 1021.3 |
| 20260507024551 | 55 | 209 | 4.0 | 7.0 | 0.00 | 0.00 | 0.00 | 85 | 1021.4 |
| 20260507024026 | 55 | 191 | 3.0 | 6.0 | 0.00 | 0.00 | 0.00 | 85 | 1021.4 |
| 20260507023526 | 55 | 175 | 3.0 | 10.0 | 0.00 | 0.00 | 0.00 | 84 | 1021.3 |
| 20260507023040 | 55 | 234 | 1.0 | 10.0 | 0.00 | 0.00 | 0.00 | 84 | 1021.3 |
| 20260507022526 | 55 | 254 | 4.0 | 10.0 | 0.00 | 0.00 | 0.00 | 85 | 1021.3 |
| 20260507022028 | 55 | 195 | 3.0 | 6.0 | 0.00 | 0.00 | 0.00 | 85 | 1021.2 |
| 20260507021547 | 55 | 224 | 2.0 | 7.0 | 0.00 | 0.00 | 0.00 | 85 | 1021.4 |
| 20260507021026 | 55 | 215 | 4.0 | 9.0 | 0.00 | 0.00 | 0.00 | 84 | 1021.5 |
| 20260507020526 | 55 | 217 | 3.0 | 9.0 | 0.00 | 0.00 | 0.00 | 84 | 1021.4 |
| 20260507020042 | 55 | 213 | 4.0 | 9.0 | 0.00 | 0.00 | 0.00 | 84 | 1021.4 |
| 20260507015526 | 55 | 196 | 5.0 | 9.0 | 0.00 | 0.00 | 0.00 | 84 | 1021.4 |
| 20260507015026 | 55 | 196 | 5.0 | 9.0 | 0.00 | 0.00 | 0.00 | 84 | 1021.5 |
| 20260507014540 | 55 | 202 | 5.0 | 11.0 | 0.00 | 0.00 | 0.00 | 83 | 1021.4 |
| 20260507014026 | 55 | 202 | 6.0 | 11.0 | 0.00 | 0.00 | 0.00 | 83 | 1021.5 |
| 20260507013525 | 56 | 224 | 4.0 | 9.0 | 0.00 | 0.00 | 0.00 | 83 | 1021.5 |
| 20260507013041 | 56 | 163 | 3.0 | 12.0 | 0.00 | 0.00 | 0.00 | 82 | 1021.5 |
| 20260507012525 | 56 | 202 | 4.0 | 14.0 | 0.00 | 0.00 | 0.00 | 82 | 1021.4 |
| 20260507012026 | 56 | 204 | 6.0 | 15.0 | 0.00 | 0.00 | 0.00 | 81 | 1021.4 |
| 20260507011541 | 56 | 248 | 5.0 | 15.0 | 0.00 | 0.00 | 0.00 | 81 | 1021.4 |
| 20260507011025 | 56 | 221 | 6.0 | 12.0 | 0.00 | 0.00 | 0.00 | 81 | 1021.4 |
| 20260507010530 | 57 | 236 | 5.0 | 11.0 | 0.00 | 0.00 | 0.00 | 81 | 1021.5 |
| 20260507010041 | 57 | 200 | 3.0 | 12.0 | 0.00 | 0.00 | 0.00 | 81 | 1021.4 |
| 20260507005527 | 57 | 250 | 5.0 | 12.0 | 0.00 | 0.00 | 0.00 | 81 | 1021.3 |
| 20260507005026 | 57 | 240 | 4.0 | 9.0 | 0.00 | 0.00 | 0.00 | 81 | 1021.3 |
| 20260507004539 | 57 | 242 | 4.0 | 10.0 | 0.00 | 0.00 | 0.00 | 81 | 1021.3 |
| 20260507004026 | 57 | 214 | 3.0 | 10.0 | 0.00 | 0.00 | 0.00 | 81 | 1021.3 |
| 20260507003529 | 57 | 254 | 5.0 | 9.0 | 0.00 | 0.00 | 0.00 | 81 | 1021.3 |
| 20260507003043 | 57 | 215 | 3.0 | 12.0 | 0.00 | 0.00 | 0.00 | 81 | 1021.3 |
| 20260507002528 | 57 | 243 | 6.0 | 12.0 | 0.00 | 0.00 | 0.00 | 80 | 1021.4 |
| 20260507002026 | 57 | 211 | 3.0 | 9.0 | 0.00 | 0.00 | 0.00 | 80 | 1021.4 |
| 20260507001604 | 57 | 228 | 3.0 | 10.0 | 0.00 | 0.00 | 0.00 | 80 | 1021.3 |
| 20260507001025 | 57 | 198 | 4.0 | 10.0 | 0.00 | 0.00 | 0.00 | 80 | 1021.4 |
| 20260507000526 | 57 | 246 | 4.0 | 10.0 | 0.00 | 0.00 | 0.00 | 80 | 1021.5 |
| 20260507000042 | 58 | 192 | 6.0 | 9.0 | 0.00 | 0.00 | 0.00 | 80 | 1021.5 |
| 20260506235526 | 58 | 237 | 3.0 | 11.0 | 0.00 | 0.00 | 0.00 | 80 | 1021.6 |
| 20260506235028 | 58 | 242 | 4.0 | 12.0 | 0.00 | 0.00 | 0.00 | 80 | 1021.5 |
| 20260506234549 | 57 | 231 | 6.0 | 12.0 | 0.00 | 0.00 | 0.00 | 79 | 1021.7 |
| 20260506234026 | 57 | 205 | 3.0 | 8.0 | 0.00 | 0.00 | 0.00 | 79 | 1021.6 |
| 20260506233525 | 57 | 187 | 4.0 | 8.0 | 0.00 | 0.00 | 0.00 | 80 | 1021.7 |
| 20260506233040 | 57 | 260 | 4.0 | 11.0 | 0.00 | 0.00 | 0.00 | 81 | 1021.6 |
| 20260506232525 | 57 | 215 | 5.0 | 12.0 | 0.00 | 0.00 | 0.00 | 80 | 1021.7 |
| 20260506232027 | 57 | 211 | 5.0 | 12.0 | 0.00 | 0.00 | 0.00 | 81 | 1021.6 |
| 20260506231538 | 57 | 221 | 5.0 | 11.0 | 0.00 | 0.00 | 0.00 | 80 | 1021.5 |
| 20260506231026 | 57 | 265 | 4.0 | 11.0 | 0.00 | 0.00 | 0.00 | 81 | 1021.6 |
| 20260506230525 | 57 | 181 | 4.0 | 11.0 | 0.00 | 0.00 | 0.00 | 81 | 1021.6 |
| 20260506230045 | 57 | 151 | 7.0 | 16.0 | 0.00 | 0.00 | 0.00 | 80 | 1021.6 |
| 20260506225526 | 57 | 235 | 5.0 | 16.0 | 0.00 | 0.00 | 0.00 | 80 | 1021.6 |
| 20260506225026 | 57 | 202 | 9.0 | 16.0 | 0.00 | 0.00 | 0.00 | 79 | 1021.6 |
| 20260506224600 | 57 | 205 | 7.0 | 16.0 | 0.00 | 0.00 | 0.00 | 80 | 1021.5 |
| 20260506224025 | 57 | 194 | 6.0 | 15.0 | 0.00 | 0.00 | 0.00 | 81 | 1021.6 |
| 20260506223525 | 57 | 257 | 6.0 | 13.0 | 0.00 | 0.00 | 0.00 | 81 | 1021.6 |
| 20260506223040 | 57 | 161 | 8.0 | 15.0 | 0.00 | 0.00 | 0.00 | 81 | 1021.7 |
| 20260506222527 | 57 | 215 | 7.0 | 15.0 | 0.00 | 0.00 | 0.00 | 80 | 1021.8 |
| 20260506222026 | 57 | 221 | 6.0 | 15.0 | 0.00 | 0.00 | 0.00 | 81 | 1021.9 |
| 20260506221541 | 57 | 228 | 7.0 | 20.0 | 0.00 | 0.00 | 0.00 | 80 | 1021.8 |
| 20260506221026 | 57 | 215 | 6.0 | 20.0 | 0.00 | 0.00 | 0.00 | 80 | 1021.8 |
| 20260506220525 | 57 | 193 | 7.0 | 14.0 | 0.00 | 0.00 | 0.00 | 80 | 1021.9 |
| 20260506220045 | 57 | 220 | 6.0 | 14.0 | 0.00 | 0.00 | 0.00 | 80 | 1021.9 |
| 20260506215526 | 57 | 189 | 5.0 | 12.0 | 0.00 | 0.00 | 0.00 | 81 | 1021.8 |
| 20260506215025 | 57 | 236 | 8.0 | 11.0 | 0.00 | 0.00 | 0.00 | 80 | 1021.8 |
| 20260506214617 | 57 | 220 | 4.0 | 12.0 | 0.00 | 0.00 | 0.00 | 80 | 1021.7 |
| 20260506214028 | 57 | 250 | 7.0 | 12.0 | 0.00 | 0.00 | 0.00 | 79 | 1021.8 |
| 20260506213525 | 57 | 225 | 3.0 | 12.0 | 0.00 | 0.00 | 0.00 | 80 | 1021.9 |
| 20260506213042 | 57 | 159 | 6.0 | 12.0 | 0.00 | 0.00 | 0.00 | 80 | 1021.9 |
| 20260506212527 | 57 | 271 | 6.0 | 12.0 | 0.00 | 0.00 | 0.00 | 80 | 1021.9 |
| 20260506212026 | 56 | 254 | 4.0 | 18.0 | 0.00 | 0.00 | 0.00 | 81 | 1021.9 |
| 20260506211550 | 56 | 194 | 5.0 | 18.0 | 0.00 | 0.00 | 0.00 | 82 | 1022.0 |
| 20260506211026 | 56 | 190 | 7.0 | 12.0 | 0.00 | 0.00 | 0.00 | 82 | 1021.9 |
| 20260506210525 | 56 | 127 | 6.0 | 13.0 | 0.00 | 0.00 | 0.00 | 81 | 1022.0 |
| 20260506210042 | 56 | 254 | 6.0 | 13.0 | 0.00 | 0.00 | 0.00 | 80 | 1022.0 |
| 20260506205525 | 57 | 232 | 4.0 | 11.0 | 0.00 | 0.00 | 0.00 | 81 | 1021.9 |
| 20260506205025 | 56 | 246 | 6.0 | 11.0 | 0.00 | 0.00 | 0.00 | 80 | 1021.9 |
| 20260506204540 | 57 | 209 | 6.0 | 11.0 | 0.00 | 0.00 | 0.00 | 81 | 1022.0 |
| 20260506204026 | 57 | 197 | 5.0 | 9.0 | 0.00 | 0.00 | 0.00 | 80 | 1022.0 |
| 20260506203525 | 57 | 227 | 3.0 | 9.0 | 0.00 | 0.00 | 0.00 | 81 | 1021.8 |
| 20260506203040 | 57 | 267 | 4.0 | 14.0 | 0.00 | 0.00 | 0.00 | 81 | 1021.7 |
| 20260506202525 | 57 | 219 | 6.0 | 14.0 | 0.00 | 0.00 | 0.00 | 80 | 1021.7 |
| 20260506202025 | 56 | 222 | 5.0 | 13.0 | 0.00 | 0.00 | 0.00 | 80 | 1021.8 |
| 20260506201540 | 57 | 283 | 6.0 | 11.0 | 0.00 | 0.00 | 0.00 | 79 | 1021.8 |
| 20260506201028 | 57 | 255 | 5.0 | 10.0 | 0.00 | 0.00 | 0.00 | 80 | 1021.7 |
| 20260506200528 | 57 | 189 | 6.0 | 10.0 | 0.00 | 0.00 | 0.00 | 79 | 1021.6 |
| 20260506200038 | 57 | 267 | 5.0 | 9.0 | 0.00 | 0.00 | 0.00 | 80 | 1021.7 |
| 20260506195530 | 57 | 228 | 3.0 | 11.0 | 0.00 | 0.00 | 0.00 | 81 | 1021.6 |
| 20260506195025 | 56 | 249 | 4.0 | 11.0 | 0.00 | 0.00 | 0.00 | 81 | 1021.5 |
| 20260506194546 | 56 | 193 | 3.0 | 15.0 | 0.00 | 0.00 | 0.00 | 81 | 1021.5 |
| 20260506194028 | 56 | 247 | 7.0 | 15.0 | 0.00 | 0.00 | 0.00 | 80 | 1021.5 |
| 20260506193525 | 56 | 216 | 5.0 | 12.0 | 0.00 | 0.00 | 0.00 | 81 | 1021.5 |
| 20260506193048 | 56 | 201 | 6.0 | 12.0 | 0.00 | 0.00 | 0.00 | 81 | 1021.5 |
| 20260506192526 | 56 | 211 | 6.0 | 14.0 | 0.00 | 0.00 | 0.00 | 80 | 1021.5 |
| 20260506192026 | 55 | 220 | 6.0 | 14.0 | 0.00 | 0.00 | 0.00 | 81 | 1021.5 |
| 20260506191542 | 55 | 241 | 6.0 | 14.0 | 0.00 | 0.00 | 0.00 | 81 | 1021.4 |
| 20260506191026 | 55 | 246 | 6.0 | 14.0 | 0.00 | 0.00 | 0.00 | 81 | 1021.4 |
| 20260506190526 | 55 | 222 | 6.0 | 14.0 | 0.00 | 0.00 | 0.00 | 81 | 1021.4 |
| 20260506190041 | 55 | 225 | 6.0 | 12.0 | 0.00 | 0.00 | 0.00 | 82 | 1021.5 |
| 20260506185525 | 55 | 233 | 6.0 | 12.0 | 0.00 | 0.00 | 0.00 | 82 | 1021.6 |
| 20260506185030 | 55 | 183 | 4.0 | 8.0 | 0.00 | 0.00 | 0.00 | 83 | 1021.5 |
| 20260506184546 | 55 | 254 | 3.0 | 10.0 | 0.00 | 0.00 | 0.00 | 83 | 1021.5 |
| 20260506184033 | 55 | 247 | 5.0 | 11.0 | 0.00 | 0.00 | 0.00 | 83 | 1021.4 |
| 20260506183529 | 55 | 225 | 5.0 | 11.0 | 0.00 | 0.00 | 0.00 | 82 | 1021.4 |